Wind Cave National Park, SD

5:37 PM MST on February 11, 2016 (GMT -0700)
Hay Creek Road | | Change Station
CLOSE
Current Station
Personal Weather Station
Location: Custer, SD
Elevation: 5325 ft
Nearby Weather Stations

Elev 5325 ft 43.70 °N, 103.67 °W | Updated 25 seconds ago

Clear
Clear
42.6 °F
Feels Like 43 °F
N
0.9
Wind Variable Wind from WSW
Gusts 2.5 mph

Today
High -- | Low -- °F
--% Chance of Precip.
Yesterday
High -- | Low -- °F
Precip. -- in
Pressure 30.10 in
Visibility 10.0 miles
Clouds Clear
Windchill 43 °F
Dew Point 24 °F
Humidity 47%
Rainfall 0.00 in
Snow Depth Not available.
6:59 AM 5:18 PM
Waxing Crescent, 15% visible
METAR KCUT 112353Z AUTO 31013G29KT 10SM CLR 06/M07 A3012 RMK AO2 PK WND 32034/2333 SLP192 T00611067 10094 20061 53022
Pressure 30.10 in
Visibility 10.0 miles
Clouds Clear
Windchill 43 °F
Dew Point 24 °F
Humidity 47%
Rainfall 0.00 in
Snow Depth Not available.
6:59 AM 5:18 PM
Waxing Crescent, 15% visible
METAR KCUT 112353Z AUTO 31013G29KT 10SM CLR 06/M07 A3012 RMK AO2 PK WND 32034/2333 SLP192 T00611067 10094 20061 53022

10-Day Weather Forecast

Almanac

Astronomy

Feb. 11, 2016 Rise Set
Actual Time
Civil Twilight
Nautical Twilight
Astronomical Twilight
Moon
Length of Visible Light
Length of Day
Tomorrow will be .
, % of the Moon is Illuminated

Today's Extremes

State Highs State Lows

Community

WunderPhotos

Upload Photos

1,892,194 photos uploaded!

WunderBlog® & News

Nearby

Air Quality

  Air Quality AQ Index Pollutant
Not available.

Snow Depth

Station Depth Elevation

Earthquake Activity

City Distance Mag. Time & Date
Minimum magnitude displayed is 2.5.

Coastal Water Temperatures

Place Temperature

Stations

Nearby Weather Stations

Station Location Temp. Windchill Dew Point Humidity Wind Precip. Elev Updated Type
                   

Watches & Warnings

There are currently no watches in effect.